STARLINK-31960, 59931

Orbit data source: Space-Track

STARLINK-31960, 59931 is a payload satellite owned by SpaceX/Seattle (US) in LEO that was launched on Sat, 01 Jun 2024 UTC via an FALCON 9 launch vehicle from the Air Force Eastern Test Range (AFETR). Payload-class satellites include a variety of spacecraft equipped with specific instruments for various scientific and technological missions. These include communications satellites like Starlink; space stations such as the ISS; scientific satellites like the Hubble; Earth observation satellites from companies like Planet Labs, Umbra, and HawkEye 360; GPS; miniature CubeSats for education and research; and military/defense satellites.

Loading next visibility...
Identifier
59931, 2024-106K
Orbit
LEO
Country
Flag of USUS
Related business
Manufacturer
SpaceX/Seattle
Mission
Operational Commercial Communications
Bus & Motor
STARLINK V2M, Unknown motor
Mass
730 kg wet, ~700 kg dry
Launch date (UTC)
2024-06-01 (2 years ago)
Launch vehicle
FALCON 9
Launch site
Air Force Eastern Test Range (AFETR)
Object type
Payload
Rocket body
Debris
Shape & HBR
Box + 2 Pan, 17.7 m
Radar Cross Section
33.884 m², Large (>1 m²)

Expand to show TLE details & history
Last TLE update: 19 hours ago

TLE from 19 hours ago
0 STARLINK-31960
1 59931U 24106K   26035.39538154 -.00000329  00000-0 -24189-5 0  9999
2 59931  43.0025 160.3161 0001279 264.6037  95.4669 15.27573269 95435
Epoch: 2026-02-04T09:29Z
TLE epoch observation values (Epoch: 2026-02-04T09:29:20.965Z)
Latitude
0.00001°
Longitude
-116.58381°
Altitude
482.929 km
Speed
7.626 km/s
True Right ascension
10h 41m 15s
True Declination
0° 00' 00"
Sunlit
Object was in full shadow at epoch
Visualization orbit readout
Latitude
Unknown
Longitude
Unknown
Altitude
Unknown
Speed
Unknown
Apparent Right ascension
Unknown
Apparent Declination
Unknown
Sunlit
N/A
Visualization observer readout
Local Sidereal Time
06:13:42
Azimuth
Unknown
Elevation
Unknown
Doppler factor
Unknown
Orbital elements
Apogee altitude
485.892 km
Perigee altitude
484.136 km
Semi-major axis
6,863.151 km
Eccentricity
0.00013
Inclination
43.0025°
RAAN
160.3161°
Arg. of periapsis
264.6037°
True anomaly
95.48149°
Mean anomaly
95.4669°
Eccentric anomaly
95.47419°
Mean motion
3.81731 °/min
Orbital period
94.31 mins
BSTAR
-0.0000024189
Loading maneuver chart data...
Computing Atmospheric mass density...
Loading historical data...
Loading historical data...
Loading historical data...
Loading historical data...
Loading historical data...
Loading historical data...
Loading historical data...

Documentation

Showing up to 5 results
|